Regional Weather Roundup
Issued by NWS

Home | Current Version | Previous Version | Graphics & Text | Print | Product List | Glossary On
Versions: 1 2 3 4 5 6 7 8 9 10 11 12 13 14 15 16 17 18 19 20 21 22 23 24 25 26 27
000
ASUS45 KCYS 140810
RWRWY

WYOMING REGIONAL WEATHER ROUNDUP
NATIONAL WEATHER SERVICE CHEYENNE WY
100 AM MST THU DEC 14 2017

NOTE:  "FAIR" INDICATES FEW OR NO CLOUDS BELOW 12,000 FEET
WITH NO SIGNIFICANT WEATHER AND/OR OBSTRUCTIONS TO VISIBILITY.

WYZ001-140900-
YELLOWSTONE NATIONAL PARK

CITY           SKY/WX    TMP DP  RH WIND       PRES   REMARKS
LK YELLOWSTONE   N/A     11   8  88 CALM      30.31R
W YELLOWSTONE  NOT AVBL

$$
WYZ002>013-054>058-071-098>099-140900-
NORTHERN WYOMING

CITY           SKY/WX    TMP DP  RH WIND       PRES   REMARKS
JACKSON        FAIR      16  13  88 CALM        N/A
CODY           CLOUDY    26  24  92 SW6       30.27S WCI  19
GREYBULL       CLOUDY    34  28  79 NW9       30.24F WCI  27
WORLAND        CLOUDY    28  26  92 CALM      30.25F
SHERIDAN       CLOUDY    40  22  48 NW20G29   30.18F WCI  30
BUFFALO        CLOUDY    39  17  41 NW16G28   30.16F WCI  30
GILLETTE       CLOUDY    35  24  64 NW14      30.14F WCI  26
HULETT         CLOUDY    34  25  69 W8        30.12S WCI  27
NEWCASTLE      FLURRIES  32  21  64 NW15      30.12S WCI  22

$$
WYZ014>020-022>026-101>103-140900-
CENTRAL WYOMING

CITY           SKY/WX    TMP DP  RH WIND       PRES   REMARKS
BIG PINEY      FAIR      23  16  74 N10       30.24R WCI  12
PINEDALE       FAIR      18  18 100 SW3       30.23F
DUBOIS         PTSUNNY   21  19  93 NW8       30.22S WCI  12
LANDER         FAIR      27  21  78 W8        30.24F WCI  19
RIVERTON       FAIR      21  19  92 W8        30.25F WCI  11
CASPER         CLOUDY    29  27  92 W6        30.20F WCI  23
DOUGLAS        MOCLDY    31  27  85 NW12      30.18F WCI  22

$$
WYZ021-027>030-104>119-140900-
SOUTHERN WYOMING

CITY           SKY/WX    TMP DP  RH WIND       PRES   REMARKS
EVANSTON       CLOUDY    24  21  88 N8        30.25R WCI  15
FORT BRIDGER   CLOUDY    29  25  87 CALM      30.27S
ROCK SPRINGS   FAIR      23  20  88 NE14      30.24R WCI  11
DIXON          CLOUDY    31  23  73 NE22G30   30.18R WCI  18
RAWLINS        CLOUDY    25  23  92 N9        30.19S WCI  15
SARATOGA       FLURRIES  27  23  86 N8        30.18S WCI  18
LARAMIE        LGT SNOW  22  22 100 N8        30.14S FOG     WCI  12
CHEYENNE       LGT SNOW  27  25  92 N16G22    30.14S FOG     WCI  15
TORRINGTON     CLOUDY    36  19  50 NW9       30.15S WCI  29
PINE BLUFFS    CLOUDY    30  27  86 MISG      30.15F

$$




USA.gov is the U.S. government's official web portal to all federal, state and local government web resources and services.